Date,TemperatureHighF,TemperatureAvgF,TemperatureLowF,DewpointHighF,DewpointAvgF,DewpointLowF,HumidityHigh,HumidityAvg,HumidityLow,PressureMaxIn,PressureMinIn,WindSpeedMaxMPH,WindSpeedAvgMPH,GustSpeedMaxMPH,PrecipitationSumIn
2013-7-1,76.2,68.4,65.3,70.8,66.3,63.8,98,93,82,30.11,29.93,8,1,8,0.74
2013-7-2,65.8,61.7,57.7,65.1,60.9,56.9,98,97,96,30.24,30.08,12,2,12,0.17
2013-7-3,69.5,63.3,58.4,65.7,61.5,57.8,98,94,85,30.22,30.09,11,2,11,0.10
2013-7-4,85.5,75.7,63.1,76.2,70.6,62.2,97,85,69,30.17,30.03,18,2,18,0.00
2013-7-5,92.3,81.6,74.5,76.3,72.9,70.2,91,76,51,30.13,29.99,15,3,17,0.00
2013-7-6,88.8,81.6,72.9,74.0,70.9,62.8,92,71,56,30.03,29.92,18,3,18,0.00
2013-7-7,88.0,78.2,71.3,71.3,67.6,61.9,90,71,53,29.98,29.90,9,2,11,0.00
2013-7-8,74.3,69.9,64.6,71.2,65.4,58.7,95,86,67,30.09,29.90,14,1,14,0.18
2013-7-9,70.8,64.9,61.9,65.4,62.2,60.4,96,91,80,30.14,30.08,9,1,9,0.05
2013-7-10,66.2,62.7,60.3,65.5,61.6,59.2,98,96,93,30.10,29.77,11,2,11,0.09
2013-7-11,80.3,71.4,66.2,74.3,69.5,65.1,98,94,79,29.97,29.74,12,1,12,0.02
2013-7-12,77.3,69.8,63.9,65.5,60.6,57.5,87,73,57,30.23,29.96,13,3,13,0.00
2013-7-13,76.3,69.0,60.6,65.2,61.3,57.4,91,77,59,30.34,30.23,12,3,12,0.00
2013-7-14,84.2,75.9,65.6,71.6,67.8,63.1,92,77,58,30.30,30.19,12,3,12,0.00
2013-7-15,92.6,81.5,70.9,72.4,69.6,65.6,92,70,45,30.19,30.06,13,2,13,0.00
2013-7-16,91.6,80.8,73.0,75.0,69.1,66.3,80,68,50,30.16,30.09,12,2,12,0.00
2013-7-17,82.2,76.4,68.0,73.3,69.9,66.2,94,81,70,30.18,29.92,27,4,27,0.36
2013-7-18,85.0,75.5,71.2,72.9,70.1,67.0,94,84,64,30.02,29.93,14,3,14,0.35
2013-7-19,94.2,82.2,69.5,77.0,72.7,67.6,94,75,50,29.96,29.64,25,4,25,0.00
2013-7-20,89.3,81.4,71.8,75.4,69.0,66.7,85,67,51,29.78,29.61,21,4,21,0.00
2013-7-21,74.0,69.5,62.0,66.7,60.9,53.5,89,75,52,30.03,29.78,15,3,15,0.00
2013-7-22,71.2,67.2,62.9,65.4,62.9,60.5,93,86,76,30.06,29.92,10,2,10,0.00
2013-7-23,70.1,66.1,62.7,67.3,64.3,60.8,97,94,90,29.92,29.55,10,2,10,0.82
2013-7-24,79.4,71.9,61.5,72.6,66.1,51.6,97,83,62,29.98,29.58,15,3,16,0.00
2013-7-25,72.3,65.0,57.4,60.4,55.8,50.5,87,73,57,30.14,29.99,11,2,11,0.00
2013-7-26,71.8,66.7,62.4,65.4,62.6,59.7,94,87,80,30.10,29.91,18,4,18,0.13
2013-7-27,79.5,71.5,63.4,67.1,64.0,61.0,94,78,61,30.02,29.94,17,3,17,0.00
2013-7-28,69.5,65.3,61.3,66.0,63.4,59.9,97,94,88,30.06,30.00,10,1,10,0.06
2013-7-29,71.8,65.0,60.9,66.9,63.4,60.0,98,95,83,30.07,30.01,14,1,14,0.32
2013-7-30,80.5,69.7,59.7,65.3,59.9,53.7,98,74,41,30.08,30.01,17,2,17,0.01
2013-7-31,78.5,68.9,58.1,62.6,59.2,55.8,94,72,55,30.13,30.05,18,3,18,0.00